Tracking 29892 objects as of 21-Nov-2024
HD Live streaming from Space Station
objects crossing your sky now

COSMOS 1618

Track COSMOS 1618 now!
10-day predictions
COSMOS 1618 is classified as:


NORAD ID: 15470
Int'l Code: 1985-003B
Perigee: 1,413.2 km
Apogee: 1,422.3 km
Inclination: 82.6 °
Period: 114.0 minutes
Semi major axis: 7788 km
RCS: 0.1843 m2 (medium)
Launch date: January 15, 1985
Source: Commonwealth of Independent States (former USSR) (CIS)
Launch site: PLESETSK MISSILE AND SPACE COMPLEX (PKMTR)
Your satellite tracking list
Your tracking list is empty




NASA's NSSDC Master Catalog

Two Line Element Set (TLE):
1 15470U 85003B   24325.81118521  .00000007  00000-0 -18625-4 0  9990
2 15470  82.6012  98.1891 0005797  92.1839  61.6520 12.62991896836992
Source of the keplerian elements: AFSPC